Home   Weather   Nagercoil   Past weeks

Flag for India Past Weather in Nagercoil, Tamil Nadu, India — Yesterday and Last 2 Weeks

Now
84 °F

Haze.


Feels Like: 96 °F
Forecast: 83 / 94 °F
Wind: 6 mph from North

Location: Thiruvananthapuram

Current Time: Apr 24, 2017 at 5:13:56 am

Latest Report: Apr 24, 2017 at 4:30 am


Visibility: 2 mi

Pressure: 29.77 "Hg

Humidity: 84%

Dew Point: 79 °F

Location of NagercoilLocation

Past Weather in Nagercoil — Graph

°F

Nagercoil Temperature Yesterday

Maximum temperature yesterday: 91 °F (at 2:00 pm)
Minimum temperature yesterday: 82 °F (at 2:00 am)
Average temperature yesterday: 86 °F

High & Low Weather Summary for the Past Weeks

 TemperatureHumidityPressure
High91 °F (Apr 9, 4:00 pm)94% (Apr 13, 12:00 am)29.89 "Hg (Apr 13, 12:00 am)
Low77 °F (Apr 12, 7:30 pm)59% (Apr 12, 10:30 am)29.68 "Hg (Apr 10, 3:00 pm)
Average86 °F77%29.78 "Hg
* Reported Apr 9 3:30 am — Apr 24 4:00 am, Nagercoil, Weather by CustomWeather, © 2017

Note: Actual official high and low records may vary slightly from our data, if they occured in-between our weather recording intervals... More about our weather records

Advertising

Nagercoil Weather History for the Previous 24 Hours

Scroll right to see more
 ConditionsComfort  
Time TempWeatherWind HumidityBarometerVisibility
4:00 am
Mon, Apr 24
84 °FHaze.5 mph84%29.77 "Hg2 mi
3:30 am84 °FHaze.5 mph84%29.77 "Hg2 mi
3:00 am84 °FHaze.3 mph84%29.77 "Hg2 mi
2:30 am84 °FHaze.3 mph84%29.77 "Hg2 mi
2:00 am84 °FHaze.5 mph84%29.77 "Hg2 mi
1:30 am84 °FHaze.5 mph84%29.80 "Hg2 mi
12:30 am84 °FHaze.5 mph84%29.80 "Hg2 mi
12:00 am86 °FHaze.5 mph79%29.83 "Hg2 mi
11:30 pm
Sun, Apr 23
86 °FPassing clouds.5 mph79%29.83 "Hg2 mi
11:00 pm86 °FPassing clouds.5 mph79%29.83 "Hg2 mi
10:30 pm86 °FPassing clouds.5 mph79%29.83 "Hg2 mi
10:00 pm86 °FPassing clouds.7 mph79%29.83 "Hg2 mi
9:30 pm86 °FPassing clouds.6 mph79%29.83 "Hg2 mi
9:00 pm86 °FPassing clouds.8 mph79%29.83 "Hg2 mi
8:30 pm86 °FHaze.9 mph79%29.80 "Hg2 mi
8:00 pm86 °FHaze.12 mph79%29.80 "Hg2 mi
7:30 pm86 °FHaze.12 mph79%29.80 "Hg2 mi
6:30 pm88 °FHaze.12 mph75%29.77 "Hg2 mi
6:00 pm88 °FHaze.12 mph75%29.74 "Hg2 mi
5:30 pm88 °FThunderstorms. Passing clouds.12 mph75%29.74 "Hg2 mi
5:00 pm90 °FThunderstorms. Passing clouds.12 mph75%29.74 "Hg3 mi
4:30 pm90 °FHaze.12 mph75%29.74 "Hg3 mi
4:00 pm90 °FHaze.12 mph75%29.71 "Hg3 mi
3:30 pm90 °FHaze.12 mph75%29.74 "Hg3 mi
3:00 pm90 °FHaze.12 mph75%29.74 "Hg3 mi
2:30 pm90 °FHaze.12 mph75%29.74 "Hg3 mi
2:00 pm91 °FHaze.12 mph71%29.77 "Hg3 mi
1:30 pm90 °FHaze.12 mph75%29.77 "Hg3 mi
1:00 pm90 °FHaze.12 mph75%29.80 "Hg3 mi
12:30 pm90 °FHaze.12 mph71%29.80 "Hg3 mi
12:00 pm90 °FHaze.14 mph71%29.83 "Hg3 mi
11:30 am90 °FHaze.14 mph71%29.83 "Hg3 mi
10:30 am90 °FScattered clouds.12 mph71%29.86 "Hg3 mi
10:00 am90 °FScattered clouds.10 mph67%29.86 "Hg3 mi
9:30 am90 °FHaze.10 mph67%29.86 "Hg3 mi
9:00 am90 °FHaze.10 mph71%29.86 "Hg3 mi
8:30 am88 °FHaze.7 mph75%29.83 "Hg3 mi
8:00 am86 °FHaze.7 mph79%29.83 "Hg2 mi
7:30 am84 °FHaze.7 mph79%29.80 "Hg2 mi
7:00 am82 °FHaze.6 mph84%29.80 "Hg2 mi
6:30 am82 °FHaze.6 mph84%29.80 "Hg2 mi
6:00 am82 °FHaze.5 mph84%29.80 "Hg2 mi
5:30 am82 °FHaze.6 mph84%29.77 "Hg2 mi
5:00 am82 °FPassing clouds.3 mph84%29.77 "Hg2 mi
Weather by CustomWeather, © 2017

See weather overviewHow to use our weather pages